This is the latest recevied weather packets stored in our database for station/object KO4RJX-10. If no packets are shown the sender has not sent any weather packets the latest 10 day(s).
| Time | Temp. | Humidity | Pressure | Rain* | Wind** | Luminosity | Snow |
|---|---|---|---|---|---|---|---|
| 1777899784 | 15° C | 71% | 1010.5 hPa | 0 mm | - | - | - |
| 1777898184 | 13.33° C | 77% | 1010.5 hPa | 0 mm | - | - | - |
| 1777896718 | 12.22° C | 81% | 1010.5 hPa | 0 mm | - | - | - |
| 1777896184 | 11.67° C | 84% | 1010.8 hPa | 0 mm | - | - | - |
| 1777893784 | 9.44° C | 90% | 1010.8 hPa | 0 mm | - | - | - |
| 1777890984 | 7.78° C | 99% | 1010.5 hPa | 0 mm | - | - | - |
| 1777889913 | 7.78° C | 98% | 1010.5 hPa | 0 mm | - | - | - |
| 1777889384 | 7.78° C | 97% | 1010.5 hPa | 0 mm | - | - | - |
| 1777888185 | 7.78° C | 95% | 1010.5 hPa | 0 mm | - | - | - |
| 1777885384 | 7.22° C | 98% | 1010.5 hPa | 0 mm | - | - | - |
| 1777882184 | 7.78° C | 92% | 1010.5 hPa | 0 mm | - | - | - |
| 1777878184 | 8.89° C | 81% | 1010.5 hPa | 0 mm | - | - | - |
| 1777875785 | 10° C | 75% | 1010.5 hPa | 0 mm | - | - | - |
| 1777874717 | 9.44° C | 73% | 1010.8 hPa | 0 mm | - | - | - |
| 1777874184 | 9.44° C | 73% | 1010.8 hPa | 0 mm | - | - | - |
| 1777872984 | 9.44° C | 69% | 1010.8 hPa | 0 mm | - | - | - |
| 1777872584 | 9.44° C | 69% | 1010.5 hPa | 0 mm | - | - | - |
| 1777870185 | 7.22° C | 86% | 1010.8 hPa | 0 mm | - | - | - |
| 1777869384 | 7.78° C | 84% | 1010.8 hPa | 0 mm | - | - | - |
| 1777866184 | 8.89° C | 73% | 1010.5 hPa | 0 mm | - | - | - |
| 1777864985 | 8.33° C | 77% | 1010.5 hPa | 0 mm | - | - | - |
| 1777862584 | 8.33° C | 81% | 1010.5 hPa | 0 mm | - | - | - |
| 1777861784 | 8.89° C | 79% | 1010.5 hPa | 0 mm | - | - | - |
| 1777861113 | 8.89° C | 77% | 1010.5 hPa | 0 mm | - | - | - |
| 1777860584 | 8.89° C | 82% | 1010.5 hPa | 0 mm | - | - | - |
* Rain since midnight (hover to see other rain measurements)
** Current wind speed in m/s (hover to see current wind gust speed)